Glasgow, United Kingdom

12:48 AM GMT on December 12, 2017 (GMT +0000)
Glasgow

Weather History for EGPF - August, 2017

Change the Weather History Date:

Sunday, August 13, 2017

  Actual Average Record
Temperature  
Mean Temperature 54 °F -  
Max Temperature 64 °F 63 °F 77 °F (1997)
Min Temperature 44 °F 48 °F 41 °F (2015)
Degree Days  
Heating Degree Days 11    
Growing Degree Days 4 (Base 50)    
Moisture  
Dew Point 46 °F    
Average Humidity 73    
Maximum Humidity 93    
Minimum Humidity 48    
Precipitation  
Precipitation 0.00 in - - ()
Sea Level Pressure  
Sea Level Pressure 30.09 in    
Wind  
Wind Speed 5 mph ()    
Max Wind Speed 14 mph    
Max Gust Speed -    
Visibility 6.2 miles    
Events Rain    
Averages and records for this station are not official NWS values.
T = Trace of Precipitation, MM = Missing Value Source: Averaged Metar Reports

Daily Weather History Graph

Daily Weather History Graph

Search for Another Location

Airport or City:

Trip Planner

Search our weather history database for the weather conditions in past years. The results will help you decide how hot, cold, wet, or windy it might be!

Date:

Astronomy

Aug. 13, 2017 Rise Set
Actual Time 5:45 AM BST 8:58 PM BST
Civil Twilight 5:01 AM BST 9:41 PM BST
Nautical Twilight 4:01 AM BST 10:40 PM BST
Astronomical Twilight 2:31 AM BST 12:07 AM BST
Moon 11:18 PM BST (8/13) 12:30 PM BST (8/13)
Length of Visible Light 16h 40m
Length of Day
15h 12m
Waning Gibbous, 68% of the Moon is Illuminated
Aug 13
Waning Gibbous
Aug 15
Last Quarter
Aug 21
New
Aug 29
First Quarter
Sep 6
Full

Hourly Weather History & Observations

Time (BST) Temp. Windchill Dew Point Humidity Pressure Visibility Wind Dir Wind Speed Gust Speed Precip Events Conditions
12:20 AM 50.0 °F - 44.6 °F 82% 30.09 in 6.2 mi West 3.5 mph - N/A   Unknown
12:50 AM 48.2 °F - 44.6 °F 87% 30.09 in 6.2 mi Variable 3.5 mph - N/A   Unknown
1:20 AM 50.0 °F - 46.4 °F 87% 30.09 in 6.2 mi WNW 6.9 mph - N/A   Unknown
1:50 AM 50.0 °F - 46.4 °F 87% 30.09 in 6.2 mi West 6.9 mph - N/A   Unknown
2:20 AM 50.0 °F - 44.6 °F 82% 30.09 in 6.2 mi WNW 4.6 mph - N/A   Unknown
2:50 AM 46.4 °F 43.5 °F 44.6 °F 93% 30.09 in 6.2 mi SW 5.8 mph - N/A   Unknown
3:20 AM 46.4 °F 45.2 °F 44.6 °F 93% 30.09 in 6.2 mi Variable 3.5 mph - N/A   Unknown
3:50 AM 44.6 °F 43.1 °F 42.8 °F 93% 30.09 in 6.2 mi Variable 3.5 mph - N/A   Unknown
4:20 AM 44.6 °F 43.1 °F 42.8 °F 93% 30.09 in 6.2 mi Variable 3.5 mph - N/A   Unknown
4:50 AM 46.4 °F 45.2 °F 44.6 °F 93% 30.09 in 6.2 mi Variable 3.5 mph - N/A   Unknown
5:20 AM 46.4 °F 44.3 °F 42.8 °F 87% 30.09 in 6.2 mi SW 4.6 mph - N/A   Unknown
5:50 AM 46.4 °F 43.5 °F 44.6 °F 93% 30.09 in 6.2 mi SSW 5.8 mph - N/A   Unknown
6:20 AM 48.2 °F - 44.6 °F 87% 30.09 in 6.2 mi SW 4.6 mph - N/A   Unknown
6:50 AM 50.0 °F - 46.4 °F 87% 30.09 in 6.2 mi SW 3.5 mph - N/A   Unknown
7:20 AM 51.8 °F - 48.2 °F 88% 30.12 in 6.2 mi SSW 3.5 mph - N/A   Unknown
7:50 AM 51.8 °F - 48.2 °F 88% 30.12 in 6.2 mi Variable 2.3 mph - N/A   Scattered Clouds
8:20 AM 53.6 °F - 48.2 °F 82% 30.12 in 6.2 mi Variable 2.3 mph - N/A   Unknown
8:50 AM 55.4 °F - 50.0 °F 82% 30.12 in 6.2 mi Variable 2.3 mph - N/A   Partly Cloudy
9:20 AM 57.2 °F - 50.0 °F 77% 30.12 in 6.2 mi Variable 2.3 mph - N/A   Mostly Cloudy
9:50 AM 55.4 °F - 50.0 °F 82% 30.12 in 6.2 mi Variable 1.2 mph - N/A   Scattered Clouds
10:20 AM 57.2 °F - 50.0 °F 77% 30.12 in 6.2 mi Variable 1.2 mph - N/A   Unknown
10:50 AM 57.2 °F - 50.0 °F 77% 30.12 in 6.2 mi South 5.8 mph - N/A   Mostly Cloudy
11:20 AM 55.4 °F - 50.0 °F 82% 30.12 in 6.2 mi SW 5.8 mph - N/A Rain Light Rain
11:50 AM 57.2 °F - 50.0 °F 77% 30.12 in 6.2 mi SW 5.8 mph - N/A   Unknown
12:20 PM 59.0 °F - 50.0 °F 72% 30.12 in 6.2 mi SW 6.9 mph - N/A   Scattered Clouds
12:50 PM 60.8 °F - 48.2 °F 63% 30.12 in 6.2 mi SW 11.5 mph - N/A Rain Light Rain
1:20 PM 60.8 °F - 48.2 °F 63% 30.12 in 6.2 mi SW 9.2 mph - N/A   Scattered Clouds
1:50 PM 62.6 °F - 48.2 °F 59% 30.12 in 6.2 mi SW 12.7 mph - N/A   Mostly Cloudy
2:20 PM 62.6 °F - 50.0 °F 63% 30.12 in 6.2 mi SW 13.8 mph - N/A   Mostly Cloudy
2:50 PM 62.6 °F - 48.2 °F 59% 30.12 in 6.2 mi SW 13.8 mph - N/A   Unknown
3:20 PM 62.6 °F - 46.4 °F 55% 30.09 in 6.2 mi SW 12.7 mph - N/A   Unknown
3:50 PM 64.4 °F - 44.6 °F 49% 30.09 in 6.2 mi WSW 11.5 mph - N/A   Unknown
4:20 PM 62.6 °F - 44.6 °F 52% 30.09 in 6.2 mi SSW 11.5 mph - N/A   Unknown
4:50 PM 62.6 °F - 42.8 °F 48% 30.09 in 6.2 mi SSW 10.4 mph - N/A   Unknown
5:20 PM 62.6 °F - 42.8 °F 48% 30.09 in 6.2 mi SSW 9.2 mph - N/A   Unknown
5:50 PM 62.6 °F - 42.8 °F 48% 30.09 in 6.2 mi SSW 9.2 mph - N/A   Unknown
6:20 PM 62.6 °F - 42.8 °F 48% 30.09 in 6.2 mi SSW 10.4 mph - N/A   Unknown
6:50 PM 60.8 °F - 42.8 °F 52% 30.09 in 6.2 mi SSW 9.2 mph - N/A   Unknown
7:20 PM 60.8 °F - 42.8 °F 52% 30.06 in 6.2 mi SSW 8.1 mph - N/A   Unknown
7:50 PM 59.0 °F - 42.8 °F 55% 30.06 in 6.2 mi SSW 6.9 mph - N/A   Unknown
8:20 PM 57.2 °F - 44.6 °F 63% 30.06 in 6.2 mi WSW 4.6 mph - N/A   Unknown
8:50 PM 57.2 °F - 44.6 °F 63% 30.06 in 6.2 mi West 2.3 mph - N/A   Unknown
9:20 PM 55.4 °F - 44.6 °F 67% 30.06 in 6.2 mi WSW 4.6 mph - N/A   Unknown
9:50 PM 55.4 °F - 44.6 °F 67% 30.06 in 6.2 mi SW 2.3 mph - N/A   Unknown
10:20 PM 53.6 °F - 46.4 °F 77% 30.06 in 6.2 mi NNE 2.3 mph - N/A   Unknown
10:50 PM 55.4 °F - 44.6 °F 67% 30.06 in 6.2 mi Variable 3.5 mph - N/A   Unknown
11:20 PM 53.6 °F - 44.6 °F 72% 30.06 in 6.2 mi ESE 4.6 mph - N/A   Unknown
11:50 PM 53.6 °F - 46.4 °F 77% 30.06 in 6.2 mi ESE 6.9 mph - N/A   Scattered Clouds